Voltar ao catálogo

STARLINK-5991

AtivoComunicaçõesSSO
NORAD 56331·PAYLOAD·🇺🇸 United States

Lançado Apr 27, 2023 de Vandenberg Space Force Base

Loading…

Próximas Passagens (próximas 24 horas)

TLE

AtualizadoSource: CelesTrak SupGP

Época: Sep 15, 2026, 01:56 UTC

1 56331C 23058Q   26258.08104167  .00584090  00000+0  31323-1 0  2582
2 56331  97.2852 252.1832 0001659  85.9535 233.8689 15.14759724    17

Acompanhe STARLINK-5991 em tempo real com AllMySat

Download on the App Store